Orbital Elements at Epoch 2459200.5 (2020-Dec-17.0) TDB
Reference: JPL 17 (heliocentric ecliptic J2000)
Element | Value | Uncertainty (1-sigma) | Units |
e | .2179651957816071 | 5.719e-08 | |
a | 2.568392852290027 | 1.7261e-08 | au |
q | 2.008572601396551 | 1.4213e-07 | au |
i | 11.0047198600216 | 6.0571e-06 | deg |
node | 313.1039561404519 | 2.8661e-05 | deg |
peri | 83.71499704454685 | 3.284e-05 | deg |
M | 204.2517540218723 | 1.8693e-05 | deg |
tp | 2459850.946033149230 (2022-Sep-28.44603315) | 8.2e-05 | TDB |
period | 1503.455595683605 4.12 | 1.5156e-05 4.149e-08 | d yr |
n | .2394483754848189 | 2.4138e-09 | deg/d |
Q | 3.128213103183503 | 2.1023e-08 | au |
|
| | Orbit Determination Parameters
Additional Information
|